SHT3L EGCC-EGLL

Flight info

Callsign SHT3L
Flight time N/A
Altitude 19000
Route SANBA N859 HON
Aircraft A320/M-SDE3FGHIRWY/LB1

Departure

Time 2026-05-01 13:49
Airport Manchester Airport (EGCC)

Arrival

Time N/A
Airport London Heathrow Airport (EGLL)
Time Latitude Longitude Altitude Speed Heading
2026-05-01 13:21 53.36891 -2.28789 255 ft 0 kts 135°
2026-05-01 13:35 53.36907 -2.28816 255 ft 3 kts 135°
2026-05-01 13:35 53.36939 -2.28820 255 ft 4 kts 225°
2026-05-01 13:36 53.36953 -2.28796 255 ft 0 kts 225°
2026-05-01 13:38 53.36949 -2.28803 255 ft 2 kts 225°
2026-05-01 13:39 53.36932 -2.28832 255 ft 5 kts 225°
2026-05-01 13:39 53.36899 -2.28886 255 ft 8 kts 225°
2026-05-01 13:39 53.36853 -2.28963 255 ft 11 kts 225°
2026-05-01 13:39 53.36781 -2.29034 255 ft 13 kts 193°
2026-05-01 13:40 53.36697 -2.28959 255 ft 15 kts 135°
2026-05-01 13:40 53.36613 -2.28855 255 ft 13 kts 137°
2026-05-01 13:40 53.36557 -2.28719 255 ft 15 kts 130°
2026-05-01 13:40 53.36476 -2.28585 255 ft 18 kts 135°
2026-05-01 13:41 53.36403 -2.28414 255 ft 19 kts 113°
2026-05-01 13:41 53.36320 -2.28241 255 ft 16 kts 136°
2026-05-01 13:41 53.36234 -2.28101 255 ft 18 kts 135°
2026-05-01 13:41 53.36148 -2.27964 255 ft 15 kts 139°
2026-05-01 13:42 53.36066 -2.27855 255 ft 15 kts 142°
2026-05-01 13:42 53.35979 -2.27749 255 ft 16 kts 151°
2026-05-01 13:42 53.35863 -2.27731 255 ft 17 kts 182°
2026-05-01 13:42 53.35764 -2.27665 250 ft 16 kts 153°
2026-05-01 13:43 53.35649 -2.27563 246 ft 14 kts 143°
2026-05-01 13:43 53.35623 -2.27526 246 ft 6 kts 140°
2026-05-01 13:43 53.35587 -2.27477 245 ft 0 kts 141°
2026-05-01 13:44 53.35587 -2.27476 245 ft 1 kts 141°
2026-05-01 13:44 53.35580 -2.27467 245 ft 2 kts 141°
2026-05-01 13:45 53.35575 -2.27461 245 ft 0 kts 141°
2026-05-01 13:46 53.35553 -2.27431 246 ft 8 kts 142°
2026-05-01 13:46 53.35490 -2.27349 248 ft 15 kts 141°
2026-05-01 13:46 53.35373 -2.27205 246 ft 26 kts 160°
2026-05-01 13:47 53.35202 -2.27233 235 ft 18 kts 191°
2026-05-01 13:47 53.35151 -2.27250 230 ft 0 kts 191°
2026-05-01 13:47 53.35150 -2.27250 230 ft 1 kts 191°
2026-05-01 13:47 53.35104 -2.27265 228 ft 18 kts 191°
2026-05-01 13:48 53.34936 -2.27467 225 ft 44 kts 231°
2026-05-01 13:48 53.34598 -2.28171 228 ft 107 kts 231°
2026-05-01 13:48 53.34021 -2.29366 237 ft 154 kts 232°
2026-05-01 13:48 53.33310 -2.30832 631 ft 168 kts 233°
2026-05-01 13:49 53.32589 -2.32342 1403 ft 165 kts 231°
2026-05-01 13:49 53.31916 -2.33980 1838 ft 184 kts 251°
2026-05-01 13:49 53.32006 -2.36195 2166 ft 209 kts 296°
2026-05-01 13:49 53.32828 -2.38337 2564 ft 233 kts 296°
2026-05-01 13:50 53.33201 -2.41045 3051 ft 250 kts 263°
2026-05-01 13:50 53.32615 -2.43781 3841 ft 254 kts 231°
2026-05-01 13:50 53.31277 -2.45681 4651 ft 257 kts 204°
2026-05-01 13:50 53.29546 -2.46202 4925 ft 255 kts 173°
2026-05-01 13:51 53.27827 -2.45456 5062 ft 257 kts 163°
2026-05-01 13:51 53.26196 -2.44204 5975 ft 259 kts 153°
2026-05-01 13:51 53.24614 -2.42767 6978 ft 259 kts 154°
2026-05-01 13:51 53.23020 -2.41357 7889 ft 260 kts 154°
2026-05-01 13:52 53.21409 -2.39949 8797 ft 263 kts 155°
2026-05-01 13:52 53.19783 -2.38530 9670 ft 265 kts 155°
2026-05-01 13:52 53.18135 -2.37093 10396 ft 274 kts 154°
2026-05-01 13:52 53.16374 -2.35561 10650 ft 297 kts 154°
2026-05-01 13:53 53.14498 -2.33927 11124 ft 309 kts 154°
2026-05-01 13:53 53.10630 -2.30539 12526 ft 319 kts 154°
2026-05-01 13:53 53.08655 -2.28813 13245 ft 323 kts 154°
2026-05-01 13:54 53.06652 -2.27073 13950 ft 327 kts 154°
2026-05-01 13:54 53.04626 -2.25314 14588 ft 330 kts 154°
2026-05-01 13:54 53.02582 -2.23536 15220 ft 333 kts 154°
2026-05-01 13:54 53.00518 -2.21735 15850 ft 337 kts 154°
2026-05-01 13:55 52.98435 -2.19919 16489 ft 340 kts 154°
2026-05-01 13:55 52.97042 -2.18708 16891 ft 343 kts 154°
2026-05-01 13:55 52.94915 -2.16869 17509 ft 346 kts 155°
2026-05-01 13:55 52.92766 -2.15019 18122 ft 350 kts 155°